Regional Weather Roundup
Issued by NWS Upton, NY

Current Version | Previous Version | Graphics & Text | Print | Product List | Glossary Off
Versions: 1 2 3 4 5 6 7 8 9 10 11 12 13 14 15 16 17 18 19 20 21 22 23 24 25 26 27 28

000
ASUS41 KOKX 070208
RWROKX

REGIONAL WEATHER ROUNDUP
NATIONAL WEATHER SERVICE NEW YORK NY
900 PM EST TUE DEC 06 2016

NOTE: "FAIR" INDICATES FEW OR NO CLOUDS BELOW 12,000 FEET WITH NO
SIGNIFICANT WEATHER AND/OR OBSTRUCTIONS TO VISIBILITY.

NYZ071-072-176-178-NJZ106-104-070300-
NEW YORK CITY METRO AREA

CITY           SKY/WX    TMP DP  RH WIND       PRES   REMARKS
Central Park   LGT RAIN  40  36  86 E10G16    29.95F FOG     WCI  33
Wall St Helipt CLOUDY    42  39  89 NE12      29.94S
Bronx Bot Gard NOT AVBL
LaGuardia APRT LGT RAIN  43  37  79 NE16      29.93F
Kennedy INTL   LGT RAIN  42  37  82 NE12      29.94S
Breezy Point     N/A     39 N/A N/A NE9G15      N/A  WCI  33
Newark/Liberty LGTSLEET  41  37  86 NE8       29.93R
Teterboro      RAIN      40  36  86 NE6       29.93F
$$

NYZ177-179-078>081-070300-
LONG ISLAND NEW YORK

CITY           SKY/WX    TMP DP  RH WIND       PRES   REMARKS
Jones Beach      N/A     41 N/A N/A NE16        N/A
Matinecock PT    N/A     41 N/A N/A E21         N/A
Farmingdale    LGT RAIN  40  37  89 NE12      29.92F WCI  33
MacArthur/ISP  LGT RAIN  40  37  89 NE9       29.92F WCI  34
Shirley        LGT RAIN  40  38  93 VRB6      29.93F
Westhampton    RAIN      43  38  82 NE9       29.95F
Southampton    NOT AVBL
Bridgehampton  NOT AVBL
East Hampton   CLOUDY    44  35  68 E6        29.95F
Montauk          N/A     45  36  70 E7        29.97F
$$

NYZ052-065-067-070300-
HUDSON VALLEY

CITY           SKY/WX    TMP DP  RH WIND       PRES   REMARKS
White Plains   LGTSLEET  36  33  89 NE6       29.92F WCI  31
Newburgh       LGT SNOW  34  34 100 E7        29.96F WCI  28
Montgomery     LGT SNOW  33  32  96 N7        29.94F FOG     WCI  27
Poughkeepsie   RAIN      35  33  92 E5        29.96F FOG     WCI  31
Albany         CLOUDY    34  29  82 N3        29.99F
$$

NJZ001-105-106-008-010-013-015-019>022-104-070300-
NEW JERSEY

CITY           SKY/WX    TMP DP  RH WIND       PRES   REMARKS
Newark/Liberty LGTSLEET  41  37  86 NE8       29.93R
Teterboro      RAIN      40  36  86 NE6       29.93F
Caldwell       LGT RAIN  37  36  96 CALM      29.94S
Somerville     LGT RAIN  38  34  85 NE9G17    29.90F WCI  31
Linden         DRIZZLE   40  36  85 E13       29.93R WCI  33
Sussex         FLURRIES  34  33  96 NE7       29.92F WCI  28
Andover          N/A     33  32  96 NE3       29.92R
Trenton        LGT RAIN  42  39  89 E17       29.85F
Millville      LGT RAIN  45  44  97 NE16G25   29.77F
Atlantic City  LGT RAIN  44  41  89 NE21G28   29.77F
Wrightstown    LGT RAIN  42  40  94 NE17      29.80F
Toms River     RAIN      43  42  97 NE10      29.87F
Belmar         RAIN      42  40  92 NE9       29.90R
$$

PAZ047>061-062-071-070300-
EASTERN PENNSYLVANIA

CITY           SKY/WX    TMP DP  RH WIND       PRES   REMARKS
Philadelphia   LGT RAIN  44  40  85 NE14G22   29.84F
Allentown      LGT RAIN  36  32  85 NE8       29.89F FOG     WCI  30
Scranton       LGT SNOW  34  33  96 NE3       29.85F FOG
$$

CTZ002-004>006-009-010-012-RIZ004-006-007-MAZ004-011-015-070300-
SOUTHERN NEW ENGLAND
 IN CT

CITY           SKY/WX    TMP DP  RH WIND       PRES   REMARKS
Bradley INTL   CLOUDY    38  28  67 NE5       29.99F WCI  34
Hartford       CLOUDY    41  29  62 CALM      29.99F
Danbury        LGT SNOW  33  31  92 NE5       29.96F FOG     WCI  29
Wtrbury/Oxford LGT SNOW  34  28  80 E5        29.97F FOG     WCI  30
Bridgeport     NOT AVBL
Meriden        LGT RAIN  40  33  76 CALM      29.99F
New Haven      LGT RAIN  39  35  86 NE10      29.97F WCI  32
Chester        LGT RAIN  37  34  87 CALM      29.97F
Groton         LGT RAIN  44  35  70 NE10      29.98F
Wilimantic     CLOUDY    39  31  72 NE3       30.01S

 IN RI

CITY           SKY/WX    TMP DP  RH WIND       PRES   REMARKS
Providence     CLOUDY    39  29  67 N5        30.03R
Block Island   CLOUDY    44  36  73 E10       29.98F
Westerly       CLOUDY    41  30  65 VRB6      29.99F
 IN MA

CITY           SKY/WX    TMP DP  RH WIND       PRES   REMARKS
Boston         CLOUDY    40  33  76 S6        30.04R
Worcester      CLOUDY    35  26  69 CALM      29.99S
Westfield      CLOUDY    36  31  82 N3        30.00S
Provincetown   CLOUDY    40  31  70 E5        30.04R
Nantucket      CLOUDY    42  32  67 E9        30.00S
$$

ANZ330-335-338-340-345-350-353-355-070300-
COASTAL MARINE OBSERVATIONS


STATION/POSITION TIME  SKY/WX   TEMP    WIND        PRES    VSBY  WAVE
                                AIR SEA DIR/SP/G                  HT/PER
                 (UTC)          (F)     (DEG/KT/KT) (MB)    (MI)  (FT/S)
NY HARB ENTRANCE NOT AVBL
20 S FIRE ISLAND NOT AVBL
GREAT SOUTH BAY  0030            43 43                N/A
23 SSW MONTAUK P NOT AVBL
15 E BARNEGAT LI 0030               53                N/A           5/ 5
HUDSON CANYON    NOT AVBL
KINGS POINT      NOT AVBL
EXECUTION ROCKS  0030            44      70/ 14/ 17   N/A
CENTRAL LI SOUND NOT AVBL
EASTERN LI SOUND NOT AVBL
ROBBINS REEF     NOT AVBL
$$


>>>>>>>>>>>>>>>>>>>>>>>>>>>> KEY <<<<<<<<<<<<<<<<<<<<<<<<<<<
>                                                          <
>     SKY/WX - Sky Condition/Present Weather               <
>     TMP    - Temperature in Fahrenheit                   <
>     DP     - Dew Point in Fahrenheit                     <
>     RH     - Relative Humidity in Percent                <
>     WIND   - Direction (from) and Speed in MPH           <
>     PRES   - Mean Sea Level Pressure (inches of Hg)      <
>     WCI    - Wind Chill Index                            <
>     VSB    - VISIBILITY IN MILES                         <
>     HX     - HEAT INDEX                                  <
>     TC     - TEMPERATURE IN CELSIUS                      <
>     VRB    - VARIABLE WIND DIRECTION                     <
>                                                          <
>>>>>>>>>>>>>>>>>>>>>>>>>>>> KEY <<<<<<<<<<<<<<<<<<<<<<<<<<<




USA.gov is the U.S. government's official web portal to all federal, state and local government web resources and services.